Theta_e
304 303 303 303 302 302 302 302 302 303 303 303 304 304 304 304 304 305 300 306 301 295 295 297 297 294 294 294 289 293 291 294 294 289 288 289 287 289 287 289 287 286 284 285 286 282 280 296 293 284 286 287 287 286
303 302 302 302 302 301 302 302 302 302 302 303 303 304 305 306 305 305 299 305 308 297 295 301 301 302 299 299 295 294 293 294 296 293 291 290 287 289 288 284 292 286 291 286 288 289 297 298 292 293 291 285 285 285
303 302 301 301 301 301 301 301 301 302 302 302 303 303 305 308 308 306 303 304 302 296 296 297 297 303 305 303 304 293 295 298 297 300 295 292 286 289 286 288 291 294 294 290 290 294 295 293 294 292 290 286 286 285
302 302 301 301 301 301 301 301 301 301 302 302 302 303 304 306 308 308 304 305 302 297 290 293 302 300 303 303 303 303 301 302 301 298 293 291 289 293 289 293 292 294 294 292 292 295 291 294 291 291 289 289 290 292
302 301 301 301 301 301 301 301 301 301 302 302 302 303 303 304 306 307 306 305 304 297 290 292 298 300 301 300 300 301 300 297 295 292 291 290 295 294 296 293 291 296 294 291 289 290 286 287 290 291 288 289 291 292
302 301 301 301 301 300 301 301 301 301 301 302 302 303 303 303 304 302 297 302 304 301 293 288 298 297 300 300 298 298 298 296 295 293 292 296 300 296 290 289 297 295 294 294 291 292 289 292 292 292 289 290 292 294
301 301 301 301 300 300 301 301 301 301 301 301 302 302 302 303 302 297 296 300 303 303 293 289 289 296 298 298 300 298 298 296 295 294 295 296 296 296 292 288 290 294 296 295 296 294 290 291 288 290 290 292 294 295
301 301 300 300 300 300 300 300 300 300 301 301 301 302 303 304 304 298 303 305 304 299 296 288 287 291 298 295 295 301 296 296 295 296 299 296 297 296 290 298 297 297 296 295 294 296 294 293 291 289 290 292 292 292
301 301 300 300 300 300 300 300 300 300 300 301 301 303 303 300 296 299 305 305 305 298 290 289 285 284 297 295 295 297 300 293 302 296 296 297 295 292 297 296 295 294 293 293 295 295 292 290 289 289 289 291 291 291
301 300 300 300 300 300 300 300 300 300 300 300 300 297 293 298 302 303 300 295 294 294 293 286 292 287 293 293 293 294 297 295 292 297 299 293 295 301 297 295 294 294 295 294 291 289 289 288 287 287 288 291 292 293
301 300 300 300 300 300 300 299 299 300 298 295 291 291 298 300 298 294 288 288 289 287 290 290 291 288 295 288 289 294 292 295 290 294 294 294 293 295 294 294 295 296 296 294 293 292 290 289 288 287 289 291 292 293
301 301 300 300 300 299 299 299 299 297 296 295 294 297 297 293 290 285 286 289 287 286 290 289 291 293 293 295 290 293 290 293 288 296 293 291 294 296 295 294 295 296 296 294 293 291 290 290 290 290 291 292 292 293
301 300 300 300 300 299 299 299 299 299 299 297 293 289 289 288 282 281 281 285 287 288 292 292 289 294 295 294 292 292 290 291 297 290 291 293 296 296 295 295 295 297 296 294 293 291 290 290 291 292 292 293 294 293
301 301 301 300 300 300 299 299 298 298 295 288 285 280 283 281 284 285 287 289 293 294 292 293 290 291 296 293 294 290 294 295 290 287 288 292 295 296 296 295 295 295 295 293 292 291 289 290 290 292 293 294 294 293
300 301 301 300 300 299 299 299 298 298 292 285 286 279 282 287 289 291 293 293 294 296 293 289 289 292 292 291 294 293 289 287 286 285 289 293 296 297 296 295 295 295 295 293 293 291 290 290 290 291 294 295 294 294
300 299 298 299 299 298 298 298 297 296 290 285 284 282 286 285 286 289 290 288 294 293 292 291 288 288 288 291 289 288 287 284 286 288 292 295 298 297 296 296 296 295 296 294 293 293 292 291 290 292 294 295 295 295
298 294 296 297 296 298 298 295 293 289 285 284 283 287 285 285 284 286 287 288 293 290 284 286 283 284 292 288 286 290 287 289 292 294 296 297 298 298 297 297 296 295 295 294 294 293 293 292 293 292 291 294 295 295
294 296 297 296 296 295 294 293 289 286 281 285 283 285 287 288 287 287 289 291 290 288 287 284 289 284 284 286 288 293 294 296 297 298 296 299 300 298 297 297 296 296 295 295 294 294 293 293 292 291 293 294 294 296
295 295 297 296 296 293 288 288 290 282 283 285 286 287 287 287 289 290 289 290 291 291 289 288 284 283 284 290 293 295 296 296 296 296 297 299 300 298 297 297 297 296 295 295 294 294 294 294 294 294 293 294 293 295
297 297 296 296 296 290 285 286 291 285 282 285 287 286 286 287 289 289 289 290 289 288 286 284 284 287 291 294 299 299 301 302 299 295 296 297 296 298 298 298 298 297 296 296 296 292 295 294 295 295 295 295 294 294
295 296 297 296 292 290 288 286 285 285 286 284 287 287 286 288 287 287 287 290 287 285 285 288 289 291 294 294 296 296 297 300 300 299 298 297 297 296 299 299 299 298 297 297 296 295 294 295 295 295 296 295 295 296
295 297 294 294 288 288 285 288 285 288 285 285 285 287 285 284 285 286 289 286 285 287 289 289 291 292 292 293 294 295 297 299 301 300 297 297 297 295 298 299 298 297 298 298 298 297 297 298 298 298 296 296 295 296
296 295 291 289 285 284 283 289 283 284 281 283 285 283 284 284 286 290 285 287 287 291 292 292 293 294 294 295 296 296 297 297 296 297 301 303 304 301 300 300 300 299 298 299 300 300 299 294 295 298 299 298 297 296
294 286 284 283 284 282 286 283 285 282 282 282 282 280 283 285 290 287 284 287 292 294 294 294 294 293 294 294 293 294 296 299 298 300 303 305 304 305 306 305 302 301 302 302 300 300 300 300 296 299 299 298 298 297
283 282 284 281 285 283 281 280 280 280 278 282 281 281 284 289 285 285 286 290 293 294 297 299 297 296 294 295 295 297 300 300 301 301 304 307 307 306 303 304 304 303 303 301 300 300 300 300 300 300 299 299 298 298
280 283 281 282 282 281 281 279 280 281 281 281 282 285 289 286 283 283 289 295 295 297 299 300 298 295 296 297 298 299 301 305 304 302 305 306 306 305 304 300 301 303 304 304 303 301 301 300 300 299 299 298 290 298
278 281 284 287 286 284 283 284 285 284 282 281 284 285 286 283 283 289 296 298 296 297 298 300 302 299 298 298 301 304 307 307 306 307 310 309 308 308 307 304 303 306 306 304 304 303 303 302 300 300 300 301 300 299
284 285 281 284 283 285 282 284 283 283 285 287 287 283 283 286 289 294 295 297 296 297 298 304 305 306 304 305 306 306 307 307 307 309 307 307 307 307 308 308 308 293 306 306 305 305 304 304 302 301 301 300 301 301
283 286 286 283 284 285 284 283 284 288 291 290 287 287 288 291 293 292 294 296 297 301 304 302 303 304 304 305 306 308 308 307 305 303 303 303 304 305 307 307 306 305 307 305 288 296 303 303 303 302 301 301 301 301
284 287 284 285 283 283 287 290 289 294 295 294 294 293 289 289 292 297 300 300 300 301 302 302 303 306 305 304 303 304 305 308 308 306 304 303 304 305 306 306 306 306 306 305 300 295 286 296 292 299 298 299 299 299
287 286 285 285 285 289 291 293 294 295 294 293 294 290 290 294 300 302 301 304 303 303 304 304 303 305 304 304 303 303 303 305 307 307 307 307 307 307 307 306 306 305 305 303 302 301 299 298 300 298 298 298 297 296
288 286 286 286 288 292 293 292 291 290 292 293 292 295 296 297 295 299 301 302 303 301 296 302 303 303 304 305 305 304 295 305 305 305 306 307 307 308 308 309 307 305 304 302 302 302 300 301 301 299 298 297 297 296
291 292 293 292 292 291 294 294 293 291 291 291 292 293 293 293 292 296 301 303 302 303 303 303 304 304 304 304 303 301 297 298 289 285 286 285 285 292 304 307 306 304 303 302 300 299 298 298 298 298 298 297 297 297
Wind_Speed
6 4 4 5 5 6 7 9 11 12 13 14 14 15 13 12 11 6 6 6 4 5 13 15 13 13 10 8 7 8 7 3 3 3 2 2 3 3 5 7 8 5 6 4 6 10 8 11 18 3 12 20 23 27
7 5 4 4 6 6 7 8 11 13 13 15 15 15 15 14 11 7 4 3 3 5 9 12 20 22 24 23 12 5 5 2 3 4 2 2 4 4 5 6 3 6 5 6 6 9 23 19 10 14 17 20 24 25
8 7 5 4 5 6 7 8 9 11 13 14 16 16 17 17 12 8 4 5 3 5 12 9 9 11 11 16 14 5 5 7 5 6 3 3 5 2 5 6 9 6 3 6 10 10 17 16 10 16 20 22 23 23
8 6 4 5 7 7 8 10 11 12 13 14 15 16 17 19 17 8 3 3 2 3 5 5 2 12 12 11 16 19 15 4 3 2 2 3 4 6 3 9 12 9 8 8 14 18 14 9 18 20 23 24 24 28
7 7 5 5 7 8 9 10 11 13 14 15 16 15 17 19 19 8 4 2 1 3 5 10 18 3 1 3 13 14 14 12 4 3 5 4 4 6 6 4 8 4 5 5 12 8 4 15 19 22 24 24 25 24
8 7 6 7 8 8 9 12 12 14 15 17 18 18 17 16 15 5 2 1 1 1 4 6 4 5 8 6 10 11 9 7 4 4 4 4 4 4 4 5 8 3 3 4 6 10 9 14 17 19 22 24 23 18
8 7 7 8 8 8 11 12 13 15 17 17 19 19 18 16 6 4 3 1 1 2 3 6 6 3 7 6 2 3 7 4 4 4 5 4 3 5 4 6 4 6 7 7 8 12 5 6 12 18 21 21 21 18
8 7 8 8 9 9 10 13 15 15 18 19 21 22 18 14 8 5 2 0 4 3 3 4 6 6 5 5 4 3 4 4 6 4 3 3 2 3 6 8 7 6 8 5 11 10 9 10 12 16 19 17 18 18
9 8 8 8 9 10 11 12 15 17 19 21 22 18 3 1 2 1 6 3 4 3 3 2 3 5 5 3 4 3 4 4 3 4 3 1 2 6 6 6 5 6 6 11 11 11 10 10 11 13 16 19 15 16
9 9 8 8 9 10 10 12 14 17 20 18 4 2 1 2 12 9 1 2 3 2 3 4 3 5 5 3 4 4 2 3 3 2 2 3 6 7 5 4 3 5 6 9 11 12 7 9 11 14 16 16 14 12
10 10 9 9 9 9 10 11 12 15 7 4 4 2 4 8 2 1 2 3 3 3 3 3 3 4 3 5 3 3 4 3 3 1 3 3 3 4 3 4 4 5 7 7 7 6 6 6 8 10 14 17 15 16
11 11 10 9 8 8 9 9 10 4 2 5 7 6 3 3 2 3 3 3 4 3 2 3 4 5 4 4 3 4 3 3 4 2 4 2 5 7 3 4 5 6 7 8 8 7 7 8 7 8 10 12 13 13
12 11 11 10 9 8 9 8 8 10 8 2 2 3 3 2 3 4 4 3 1 1 3 4 7 3 3 4 4 4 4 5 2 3 2 3 11 5 4 5 5 5 6 6 7 7 8 8 7 8 9 10 11 11
12 13 11 10 9 9 9 7 6 5 2 2 2 5 4 4 5 5 1 1 2 3 6 6 5 4 3 3 3 4 4 4 3 1 3 5 13 8 3 4 6 6 7 6 7 7 8 7 7 7 8 8 9 10
10 10 10 8 9 10 10 5 4 2 2 3 2 5 5 5 3 3 3 3 2 3 4 7 5 4 4 4 4 4 4 3 5 2 4 8 15 7 4 3 5 6 6 4 5 6 7 7 6 6 7 6 8 8
9 7 4 6 7 7 7 5 3 2 1 3 5 5 5 4 5 3 3 4 1 1 4 2 4 4 5 3 4 4 4 4 3 3 7 9 11 5 4 3 4 5 5 4 5 5 7 7 6 6 7 7 7 8
5 2 2 5 3 5 10 3 2 4 4 5 6 5 8 8 9 8 4 3 1 3 3 3 5 6 4 5 4 3 4 3 3 4 6 10 8 5 1 1 2 4 3 4 4 4 7 6 6 5 7 7 7 7
2 4 7 7 2 2 1 3 2 3 6 6 6 6 5 6 8 8 6 4 3 3 3 4 4 5 6 4 3 4 3 3 2 4 7 12 6 2 3 1 2 4 3 5 4 4 4 5 5 5 6 6 6 6
4 5 10 8 3 1 2 3 3 4 8 5 6 7 7 8 9 11 9 8 6 4 3 4 7 6 8 4 2 2 4 4 1 4 7 9 5 4 4 3 3 4 4 5 4 4 4 4 3 3 4 3 4 4
7 11 11 12 6 2 3 2 3 4 4 3 4 6 5 6 7 7 8 6 6 4 7 8 9 7 5 7 3 2 4 3 1 3 6 2 3 5 5 4 3 4 4 5 4 3 4 3 3 3 3 3 4 5
5 5 10 7 4 4 3 3 5 4 4 5 4 3 5 5 8 10 10 7 8 7 8 11 11 10 13 13 9 6 8 7 5 4 5 6 3 5 4 4 4 4 3 4 4 4 3 4 4 3 3 4 4 4
3 13 4 5 3 6 5 5 4 1 3 5 5 5 6 7 10 7 5 7 7 9 9 10 12 11 12 15 15 14 12 10 9 7 6 4 3 5 7 6 6 5 5 4 4 4 4 4 4 5 5 4 3 4
8 6 3 3 5 5 4 5 5 5 5 3 3 4 5 5 5 3 5 6 7 8 11 12 14 15 13 14 12 12 13 14 10 9 8 7 6 6 6 7 7 6 6 5 5 4 4 5 6 5 5 5 5 5
10 6 7 6 9 4 4 5 4 3 4 5 5 7 6 4 2 5 7 8 10 9 10 14 10 10 9 11 10 11 11 9 9 8 7 6 6 6 7 6 7 8 6 3 6 5 5 6 7 6 6 5 5 4
6 6 5 5 5 5 7 5 6 6 7 6 6 7 4 4 5 5 6 5 4 4 6 5 8 10 10 9 9 10 10 9 8 7 7 7 6 4 4 5 6 7 6 7 7 7 6 7 7 8 8 8 8 8
7 9 8 8 6 6 7 5 7 9 4 5 7 4 3 4 6 8 3 4 7 10 7 4 4 7 8 9 7 7 8 8 7 5 6 7 7 7 7 7 7 7 8 8 7 9 9 8 9 11 10 11 8 9
6 8 5 4 3 3 4 4 5 5 5 5 3 2 3 5 6 4 2 2 7 7 8 10 5 6 6 6 6 4 4 7 8 6 3 5 7 7 7 8 9 5 8 11 9 10 10 9 9 9 9 8 10 11
5 3 9 7 6 5 5 4 3 5 5 4 3 5 4 6 3 2 4 8 9 10 9 2 0 3 3 3 3 6 4 5 6 3 3 3 4 5 6 5 3 7 6 8 9 8 8 7 7 8 9 9 8 8
4 3 4 8 7 7 8 7 6 5 2 3 3 4 4 3 5 11 12 11 8 6 1 2 3 2 3 4 4 4 6 7 8 7 5 3 3 4 5 5 4 5 4 5 4 3 7 6 5 5 6 6 5 5
4 5 5 5 7 8 6 7 3 2 2 4 3 3 2 4 8 9 4 2 4 4 3 3 2 5 6 8 7 6 4 2 0 1 3 4 2 3 3 4 4 4 4 5 5 5 4 6 7 5 5 5 6 6
2 5 4 4 5 4 6 5 4 4 3 3 7 8 5 4 2 3 7 6 5 7 6 6 7 5 5 5 5 6 7 5 6 7 6 5 4 3 3 3 3 3 4 5 6 7 7 8 8 9 8 7 8 6
5 6 4 4 4 3 4 3 4 4 3 2 3 3 3 3 6 7 8 8 7 8 7 6 5 6 5 6 7 8 7 6 5 6 7 5 5 4 3 2 3 3 4 5 4 5 10 9 8 9 9 9 9 8
3 3 4 3 2 2 3 2 3 2 3 4 5 5 4 4 4 3 3 6 6 6 6 4 4 6 8 9 9 7 8 7 8 8 9 7 5 5 5 4 3 5 6 5 4 4 7 7 5 7 6 3 3 6
Wind_Direction
229 227 261 290 304 332 334 332 332 334 333 333 334 332 328 324 326 327 285 257 263 255 280 260 263 261 266 254 269 299 330 154 266 258 256 321 261 281 282 270 285 291 314 293 290 291 297 323 332 310 299 296 297 297
215 220 236 270 302 316 329 333 330 329 334 333 333 334 327 310 295 296 275 274 226 249 267 290 274 265 256 255 267 240 243 293 285 294 241 297 263 250 261 283 210 271 244 291 275 278 292 320 317 304 303 294 296 298
217 221 236 269 290 305 314 319 320 322 326 330 329 331 323 331 319 253 250 253 237 265 277 254 266 262 226 230 221 229 220 216 224 237 270 287 269 242 269 262 288 285 274 250 296 260 311 323 325 313 310 302 302 294
219 225 247 277 293 301 311 317 321 319 325 327 326 328 326 331 337 323 215 241 222 290 281 287 281 273 292 245 208 213 246 235 286 292 289 262 256 200 248 282 284 278 304 272 272 289 320 331 327 318 317 315 320 320
227 235 249 270 282 295 306 312 314 320 321 322 322 325 323 324 328 316 267 237 229 273 291 297 301 283 197 215 215 215 226 234 230 233 222 234 244 243 255 281 260 205 251 292 293 354 310 314 318 323 320 324 328 325
224 235 254 266 280 295 306 308 316 318 319 321 320 318 318 316 328 314 262 88 188 259 295 300 310 286 300 256 247 227 208 208 198 206 232 237 253 242 261 268 259 239 250 273 283 327 295 298 309 327 323 329 332 336
231 239 254 270 279 299 303 310 318 321 319 318 313 314 310 304 295 248 293 305 297 267 270 288 288 290 305 296 178 132 171 182 197 227 232 234 220 190 266 266 271 299 306 310 312 319 302 334 327 328 325 335 338 353
236 247 252 268 286 297 309 316 318 319 315 315 313 308 302 281 262 259 248 340 151 255 251 277 286 297 10 308 299 165 168 203 201 235 234 226 186 218 253 257 295 331 320 341 347 350 339 329 338 334 330 347 354 356
237 246 257 273 292 304 311 315 316 320 317 314 309 300 265 174 216 192 279 277 201 255 273 254 299 301 348 289 275 266 201 234 175 224 226 187 202 235 263 318 337 6 1 338 345 10 9 1 341 341 337 345 8 358
241 244 257 273 285 295 315 316 321 321 318 315 311 298 242 92 308 304 131 197 192 191 219 253 288 271 316 318 291 295 222 286 269 212 134 227 253 280 4 51 37 17 3 360 359 1 14 3 352 346 340 342 355 10
238 243 249 262 283 304 312 317 323 330 340 0 359 311 329 312 278 220 259 221 167 229 210 246 261 266 261 248 275 275 303 278 270 214 253 227 256 36 28 47 28 17 12 30 26 28 34 13 354 348 349 346 353 3
238 242 250 265 281 293 304 314 321 332 307 298 294 289 277 265 200 231 234 200 207 246 120 246 268 249 261 223 246 244 257 254 250 141 249 266 23 359 338 8 16 22 19 28 32 39 39 27 0 345 1 350 355 359
240 242 248 256 263 273 293 303 307 308 316 293 232 247 241 230 236 224 204 197 226 72 242 320 314 273 249 219 245 254 247 237 101 235 355 47 343 338 340 344 355 20 27 29 35 53 51 36 9 356 10 4 0 13
257 244 242 251 257 262 280 285 298 317 297 273 263 272 236 207 228 206 286 202 223 246 314 316 301 271 301 264 270 267 271 284 248 230 21 353 346 334 337 346 328 358 23 29 30 53 55 41 23 360 19 15 15 19
249 264 241 254 251 263 272 257 264 274 245 265 245 246 239 252 274 302 315 301 335 310 322 311 282 239 252 267 249 292 272 265 22 52 285 318 321 317 333 347 332 355 22 22 37 53 60 48 30 13 22 35 41 36
249 260 229 237 274 274 255 235 184 222 255 244 236 252 241 279 264 254 268 290 298 296 303 253 276 262 253 257 257 242 303 41 306 264 293 307 320 310 329 352 9 18 23 45 48 62 65 66 48 31 26 52 50 50
188 183 202 159 108 73 132 114 199 232 228 229 238 242 256 278 268 268 248 246 162 299 301 284 254 235 300 244 234 181 187 204 245 287 320 324 311 314 317 348 59 66 38 65 71 80 87 84 69 73 47 50 53 68
155 146 189 173 150 164 188 188 220 235 244 243 249 247 233 247 272 271 256 245 219 244 228 238 300 240 241 233 202 183 204 205 246 331 342 320 306 271 167 226 110 103 96 77 78 97 121 100 78 76 61 51 37 59
161 168 177 193 199 185 207 210 214 256 240 256 262 257 254 267 259 265 269 258 225 241 255 218 239 228 225 237 253 181 187 205 35 23 321 305 287 239 170 176 159 129 132 95 87 86 63 95 101 104 95 65 46 51
198 178 180 214 209 207 235 229 218 254 260 260 250 253 249 250 268 259 258 239 188 179 209 221 222 222 216 236 234 293 180 202 348 17 298 274 244 234 197 197 183 147 147 135 112 106 118 101 88 90 121 99 77 66
198 195 205 193 186 222 251 229 228 237 278 254 279 250 259 245 248 254 254 222 210 220 231 227 242 241 235 244 259 257 253 246 239 243 271 299 219 215 211 198 178 188 197 166 149 132 153 117 114 118 121 130 112 86
185 175 151 169 225 193 237 223 245 297 253 266 270 240 260 261 269 256 216 191 230 226 230 235 236 237 238 235 240 240 249 250 247 256 244 200 183 198 210 204 197 204 212 200 176 151 149 143 140 133 128 138 141 131
166 158 160 153 204 215 246 169 207 200 250 244 239 245 241 241 234 179 241 220 236 226 228 231 237 236 237 240 245 243 243 246 253 253 245 233 220 197 202 206 207 211 209 200 197 182 165 153 168 166 147 153 133 142
119 169 181 203 199 213 168 200 201 222 243 245 239 258 257 238 231 235 249 260 252 248 233 234 231 235 235 233 232 234 234 222 232 238 231 216 214 213 216 221 211 218 221 183 186 193 186 182 165 180 176 170 174 172
155 196 211 207 195 211 204 206 205 214 244 227 249 259 252 219 240 246 244 271 288 246 259 258 233 220 220 223 224 230 217 210 214 215 213 210 212 207 208 210 211 215 193 198 194 198 197 191 190 192 190 193 193 195
200 189 200 198 184 208 201 227 211 219 245 235 233 245 243 241 236 252 247 356 354 318 301 283 214 207 216 219 218 219 216 203 192 202 218 203 210 218 204 192 197 202 201 210 207 204 206 203 204 202 203 199 195 202
208 196 195 227 211 196 230 246 250 255 247 234 232 260 246 247 245 238 221 249 309 293 283 277 210 213 211 203 209 205 176 173 192 208 186 211 215 211 205 197 201 209 177 194 199 208 214 203 205 209 215 210 204 204
237 223 198 181 203 216 237 239 233 232 232 209 186 231 244 239 276 342 308 302 293 296 287 325 236 192 188 182 150 149 138 158 173 171 146 148 201 203 204 211 215 158 172 187 198 205 213 210 205 202 207 211 205 201
227 204 192 210 206 207 217 218 224 222 213 175 236 238 256 287 304 294 293 302 298 284 332 67 47 89 91 97 123 148 140 159 159 151 154 121 153 168 189 194 183 191 197 173 171 237 205 197 197 206 199 191 186 184
229 192 221 225 211 227 206 199 216 217 203 231 248 269 292 260 264 276 281 325 19 35 28 55 94 123 126 122 118 98 70 68 258 216 158 127 120 117 142 157 169 178 169 156 144 122 111 141 130 139 157 159 159 158
204 181 212 226 261 251 234 238 261 276 281 258 253 245 230 263 255 7 15 10 34 35 40 54 65 58 89 90 90 106 92 53 70 77 84 94 89 84 88 104 112 133 142 148 160 171 163 173 158 154 172 172 166 171
177 199 217 214 233 231 210 196 171 204 225 269 324 337 348 12 19 19 9 2 17 29 26 29 38 48 58 81 85 80 73 83 68 58 61 68 65 51 52 76 113 131 139 144 160 170 176 186 166 164 174 175 175 174
238 220 233 257 226 230 203 215 156 117 52 31 17 5 10 2 35 353 333 5 352 351 7 27 52 66 73 75 84 85 74 76 70 57 57 44 32 14 54 69 99 118 126 126 129 147 151 133 140 146 118 128 192 179